Weather in Vecpiebalga

Latvia     57°03′59″N   25°48′33″E
temp.,
°C
wind,
m/s
gust,
m/s
humid.,
%
clouds,
%
prec.,
mm/h
press.,
hPa
HPBL,
m
15 april, thu
thu1500:00+4ne41071100 0.0 1023480
03:00+3ne41171100 0.0 1024524
06:00+2ne4127895 0.0 1024504
09:00+4ne5137185 0.0 1024638
12:00+8ne61051100 0.0 10241043
15:00+9ne61042100 0.0 10231159
18:00+8ne61146100 0.0 10221208
21:00+6ne61152100 0.0 10231044
16 april, fri
fri1600:00+5ne61374100 0.0 1022825
03:00+4ne61379100 0.1 1021704
06:00+4ne6158698 0.1 1021601
09:00+5ne61482100 0.1 1021579
12:00+7ene5137797 0.1 1021756
15:00+8ene51280100 0.4 1022877
18:00+10ene51176100 0.0 1022970
21:00+9ene51183100 0.0 1023835
17 april, sat
sat1700:00+8ne41186100 0.0 1023666
03:00+7ne41289100 0.0 1023529
06:00+5ene41290100 0.0 1024409
09:00+7ene51076100 0.0 1025472
12:00+10e5866100 0.0 1025790
15:00+13e465996 0.0 10251285
18:00+12e4766100 0.0 10251198
21:00+10ene3975100 0.0 1026515
18 april, sun
sun1800:00+9ene31076100 0.0 1026484
03:00+6ne288462 0.0 1027189
06:00+5ne398173 0.0 1026216
09:00+8ene49619 0.0 1026449
12:00+12e57454 0.0 10261006
15:00+15e56370 0.0 10251466
18:00+14e46400 0.0 10251569
21:00+8ene27650 0.0 1026143
19 april, mon
mon1900:00+6ene28750 0.0 1027173
03:00+5ene27790 0.0 1027121
06:00+4ene25820 0.0 102786
09:00+9e35610 0.0 1027298
12:00+13e34425 0.0 10261583
15:00+15e33365 0.0 10252132
18:00+14ese343857 0.0 10251990
21:00+11ese255792 0.0 1025136